User: anonymous   Login
Location: Chacón
(10.5789°N, 66.9317°W)
Time: 16:24:53
(UTC+00:00)
Language:

Ariane H10-3 - Orbit

View from above orbital plane
View from above orbital plane
View from above satellite
View from above satellite

Ground track
Ground track

The orbit data is extracted from the following two-line orbital elements,

1 23687U 95055B   24195.95574112 -.00000021  00000-0  40161-3 0  9994
2 23687   4.6262 161.0717 7225816 178.0808 188.0960  2.22079370232409
Epoch (UTC): 13 July 2024 22:56:16
Eccentricity: 0.7225816
inclination: 4.6262°
perigee height: 506 km
apogee height: 36369 km
right ascension of ascending node: 161.0717°
argument of perigee: 178.0808°
revolutions per day: 2.22079370
mean anomaly at epoch: 188.0960°
orbit number at epoch: 23240

The dashed part of the orbit path shows where the satellite is in the earth's shadow,  

DLR